PROGRESS-MS 16 1 47618U 21011A 21065.59387550 .00001540 00000-0 36065-4 0 9991 2 47618 51.6452 130.1583 0003369 76.5848 71.3110 15.49045139272691 STARLINK-1528 1 47620U 21012A 21065.91667824 -.00075545 00000-0 -82553-3 0 9996 2 47620 53.0503 9.1837 0001233 101.8852 110.1304 15.62795352 1825 STARLINK-1609 1 47621U 21012B 21066.50001157 -.00103502 00000-0 -11368-2 0 9994 2 47621 53.0502 6.3270 0001244 83.7935 176.3553 15.62802207 3816 STARLINK-1645 1 47622U 21012C 21066.16667824 -.00051659 00000-0 -56082-3 0 9994 2 47622 53.0505 7.9563 0001081 77.2906 107.0586 15.62804225 3759 STARLINK-1655 1 47623U 21012D 21066.50001157 -.01181673 00000-0 -83459-2 0 9992 2 47623 53.0513 4.8997 0001153 96.6503 144.8737 15.76109299 3834 STARLINK-1669 1 47624U 21012E 21066.50001157 -.01181741 00000-0 -83712-2 0 9991 2 47624 53.0512 4.9262 0001199 110.9712 118.0298 15.76042219 3824 STARLINK-1704 1 47625U 21012F 21066.50001157 -.00111029 00000-0 -12199-2 0 9994 2 47625 53.0501 6.3288 0000874 76.5839 182.9284 15.62826762 3815 STARLINK-1761 1 47626U 21012G 21066.50001157 -.00102261 00000-0 -11230-2 0 9998 2 47626 53.0502 6.3268 0001109 77.4386 186.5362 15.62800920 3819 STARLINK-1972 1 47627U 21012H 21066.50001157 -.01153915 00000-0 -82491-2 0 9999 2 47627 53.0515 4.8877 0004452 325.6916 281.1133 15.75729433 3826 STARLINK-1973 1 47628U 21012J 21065.91667824 .00023377 00000-0 26059-3 0 9997 2 47628 53.0506 9.1662 0001272 89.7763 137.4651 15.62735228 1823 STARLINK-1974 1 47629U 21012K 21066.16667824 -.01181474 00000-0 -81593-2 0 9995 2 47629 53.0494 6.5516 0001247 66.8555 88.6235 15.76611119 3774 STARLINK-1983 1 47630U 21012L 21066.16667824 -.01182609 00000-0 -80235-2 0 9990 2 47630 53.0499 6.5864 0001185 100.9102 39.1451 15.77010650 3771 STARLINK-1985 1 47631U 21012M 21066.16667824 -.01182650 00000-0 -80244-2 0 9997 2 47631 53.0494 6.5657 0001200 105.1308 43.8866 15.77008855 3776 STARLINK-1992 1 47632U 21012N 21066.16667824 -.01181821 00000-0 -81737-2 0 9995 2 47632 53.0493 6.5521 0001175 88.4081 66.5800 15.76579791 3779 STARLINK-2009 1 47633U 21012P 21066.16667824 .00048001 00000-0 52730-3 0 9997 2 47633 53.0506 7.9523 0001078 75.7062 115.6447 15.62737332 3755 STARLINK-2010 1 47634U 21012Q 21065.91667824 -.00079644 00000-0 -87110-3 0 9999 2 47634 53.0500 9.1892 0001412 91.0970 116.4676 15.62794288 1826 STARLINK-2012 1 47635U 21012R 21066.50001157 -.01178609 00000-0 -85471-2 0 9996 2 47635 53.0517 4.8815 0001426 132.9263 117.1709 15.75503537 3823 STARLINK-2013 1 47636U 21012S 21066.50001157 -.01181963 00000-0 -83666-2 0 9998 2 47636 53.0515 4.9285 0001354 126.1654 102.1350 15.76057717 3824 STARLINK-2014 1 47637U 21012T 21066.16667824 -.01182509 00000-0 -80427-2 0 9999 2 47637 53.0492 6.5812 0001169 90.7414 50.8816 15.76955403 3776 STARLINK-2015 1 47638U 21012U 21066.16667824 -.01182389 00000-0 -80498-2 0 9994 2 47638 53.0491 6.5637 0001180 86.1766 63.9274 15.76933052 3772 STARLINK-2016 1 47639U 21012V 21066.16667824 -.01182537 00000-0 -80410-2 0 9994 2 47639 53.0504 6.6022 0001146 95.3172 37.3247 15.76960963 3778 STARLINK-2018 1 47640U 21012W 21066.50001157 -.00109975 00000-0 -12087-2 0 9994 2 47640 53.0498 6.3330 0000964 78.7929 174.3107 15.62813822 3811 STARLINK-2019 1 47641U 21012X 21066.25001157 -.01149267 00000-0 -79769-2 0 9996 2 47641 53.0513 6.1297 0001164 119.0041 150.1213 15.76423205 3791 STARLINK-2020 1 47642U 21012Y 21066.16667824 -.00060820 00000-0 -66275-3 0 9991 2 47642 53.0507 7.9414 0000968 77.1648 119.3082 15.62777931 3753 STARLINK-2022 1 47643U 21012Z 21066.25001157 -.01144007 00000-0 -78309-2 0 9994 2 47643 53.0516 6.1586 0001398 133.1347 123.0693 15.76719345 3796 STARLINK-2026 1 47644U 21012AA 21066.16667824 -.00062714 00000-0 -68346-3 0 9998 2 47644 53.0505 7.9547 0001027 66.4238 123.6776 15.62787808 3755 STARLINK-2027 1 47645U 21012AB 21066.16667824 -.01182561 00000-0 -80340-2 0 9990 2 47645 53.0493 6.5746 0001187 100.0736 44.6163 15.76980456 3776 STARLINK-2028 1 47646U 21012AC 21066.50001157 -.01182108 00000-0 -83516-2 0 9995 2 47646 53.0514 4.9054 0001340 126.2374 112.7614 15.76101315 3827 STARLINK-2030 1 47647U 21012AD 21066.16667824 .00045447 00000-0 49993-3 0 9990 2 47647 53.0504 7.9562 0001151 72.4974 113.1582 15.62725832 3754 STARLINK-2031 1 47648U 21012AE 21066.25001157 -.01148269 00000-0 -78620-2 0 9999 2 47648 53.0514 6.1671 0001086 89.8852 162.4583 15.76727005 3793 STARLINK-2032 1 47649U 21012AF 21066.50001157 -.01182006 00000-0 -83747-2 0 9991 2 47649 53.0514 4.9211 0001381 128.2315 103.3500 15.76036588 3826 STARLINK-2033 1 47650U 21012AG 21066.25001157 -.01157908 00000-0 -79353-2 0 9996 2 47650 53.0515 6.1603 0001362 128.3696 127.2061 15.76726286 3794 STARLINK-2035 1 47651U 21012AH 21066.16667824 .00010328 00000-0 11863-3 0 9990 2 47651 53.0506 7.9536 0000766 72.9781 116.5021 15.62721372 3754 STARLINK-2036 1 47652U 21012AJ 21066.50001157 -.00098312 00000-0 -10792-2 0 9990 2 47652 53.0507 6.3164 0000917 77.7750 191.9085 15.62793841 3817 STARLINK-2037 1 47653U 21012AK 21066.16667824 -.01182457 00000-0 -80371-2 0 9997 2 47653 53.0491 6.6031 0001160 100.7728 30.5587 15.76969909 3774 STARLINK-2038 1 47654U 21012AL 21066.50001157 .00003279 00000-0 41636-4 0 9991 2 47654 53.0507 6.3182 0000989 81.1690 187.8541 15.62748822 3810 STARLINK-2039 1 47655U 21012AM 21066.50001157 -.00106287 00000-0 -11669-2 0 9998 2 47655 53.0504 6.3154 0000905 85.1945 185.1276 15.62825940 3815 STARLINK-2040 1 47656U 21012AN 21066.16667824 -.01182605 00000-0 -80351-2 0 9993 2 47656 53.0494 6.5833 0001166 98.2691 42.5937 15.76978543 3771 STARLINK-2041 1 47657U 21012AP 21066.16667824 .00048411 00000-0 53180-3 0 9998 2 47657 53.0505 7.9568 0001132 69.1436 119.6714 15.62733975 3752 STARLINK-2042 1 47658U 21012AQ 21066.16667824 .00044358 00000-0 48819-3 0 9998 2 47658 53.0506 7.9536 0001463 80.0725 110.6727 15.62723905 3756 STARLINK-2043 1 47659U 21012AR 21066.50001157 -.01154445 00000-0 -81694-2 0 9997 2 47659 53.0514 4.8943 0004684 323.8680 280.1131 15.75956263 3829 STARLINK-2044 1 47660U 21012AS 21066.50001157 -.01182370 00000-0 -83285-2 0 9995 2 47660 53.0515 4.9033 0001339 127.4483 112.5545 15.76169191 3820 STARLINK-2051 1 47661U 21012AT 21066.50001157 -.01181814 00000-0 -83717-2 0 9998 2 47661 53.0516 4.9301 0001291 119.8953 107.8292 15.76041482 3822 STARLINK-2052 1 47662U 21012AU 21066.16667824 -.01182346 00000-0 -80395-2 0 9990 2 47662 53.0500 6.5873 0001201 74.5715 65.1067 15.76960492 3773 STARLINK-2053 1 47663U 21012AV 21066.16667824 -.01182471 00000-0 -80792-2 0 9991 2 47663 53.0494 6.5598 0001179 98.7438 52.9946 15.76853480 3772 STARLINK-2054 1 47664U 21012AW 21066.50001157 -.01181897 00000-0 -83719-2 0 9994 2 47664 53.0513 4.9230 0001315 122.5664 108.3520 15.76042469 3826 STARLINK-2056 1 47665U 21012AX 21066.50001157 -.01182050 00000-0 -83349-2 0 9996 2 47665 53.0515 4.9099 0001302 119.6138 117.2881 15.76145477 3823 STARLINK-2057 1 47666U 21012AY 21066.50001157 -.01176430 00000-0 -83087-2 0 9991 2 47666 53.0514 4.9113 0000858 83.1669 153.2945 15.76100181 3834 STARLINK-2058 1 47667U 21012AZ 21066.16667824 .00047062 00000-0 51747-3 0 9997 2 47667 53.0502 7.9665 0001499 82.0350 92.1624 15.62721711 3753 STARLINK-2059 1 47668U 21012BA 21066.16667824 -.01182448 00000-0 -80469-2 0 9991 2 47668 53.0500 6.5937 0001155 93.0134 43.5606 15.76942612 3772 STARLINK-2060 1 47669U 21012BB 21066.16667824 -.01181997 00000-0 -80865-2 0 9990 2 47669 53.0493 6.5576 0001200 73.9696 78.5605 15.76823018 3779 STARLINK-2062 1 47670U 21012BC 21066.50001157 -.01182007 00000-0 -83742-2 0 9991 2 47670 53.0513 4.9305 0001328 124.9143 102.1832 15.76038506 3823 STARLINK-2064 1 47671U 21012BD 21066.50001157 -.01182065 00000-0 -83607-2 0 9996 2 47671 53.0514 4.9240 0001338 126.0861 104.0611 15.76075937 3829 STARLINK-2065 1 47672U 21012BE 21066.16667824 -.01182471 00000-0 -80499-2 0 9995 2 47672 53.0498 6.5736 0001205 108.6006 36.9698 15.76934287 3773 STARLINK-2066 1 47673U 21012BF 21066.50001157 -.01181966 00000-0 -83693-2 0 9992 2 47673 53.0516 4.9321 0001406 129.2175 97.1953 15.76049977 3828 STARLINK-2067 1 47674U 21012BG 21066.16667824 -.01182477 00000-0 -80395-2 0 9998 2 47674 53.0494 6.6048 0001180 105.5671 25.1660 15.76963476 3775 STARLINK-2078 1 47675U 21012BH 21066.50001157 -.01182012 00000-0 -83677-2 0 9999 2 47675 53.0515 4.9350 0001309 122.6700 102.4391 15.76056282 3827 STARLINK-2083 1 47676U 21012BJ 21066.25001157 -.01150064 00000-0 -78849-2 0 9999 2 47676 53.0514 6.1470 0001122 112.9509 148.4801 15.76700767 3792 STARLINK-2090 1 47677U 21012BK 21066.50001157 -.00112536 00000-0 -12376-2 0 9992 2 47677 53.0499 6.3331 0001292 72.6375 182.4114 15.62808237 3818 STARLINK-2091 1 47678U 21012BL 21066.16667824 -.01182604 00000-0 -80219-2 0 9999 2 47678 53.0492 6.5707 0001194 101.4593 44.9684 15.77014880 3773 STARLINK-2095 1 47679U 21012BM 21065.91667824 -.00001787 00000-0 -13686-4 0 9999 2 47679 53.0503 9.1858 0000996 90.6124 122.0251 15.62756034 1821 FALCON 9 DEB 1 47680U 21012BN 21066.19527621 .00717330 11706-4 46884-3 0 9992 2 47680 53.0488 4.0506 0017197 278.9179 80.9910 16.16213579 3379 FALCON 9 DEB 1 47681U 21012BP 21066.19478629 .00648531 25683-3 45789-3 0 9993 2 47681 53.0519 4.0506 0015000 277.6826 82.2506 16.15321167 3379 FALCON 9 DEB 1 47682U 21012BQ 21066.23872151 .00822744 11760-4 46350-3 0 9994 2 47682 53.0463 3.5975 0015179 267.7769 92.1530 16.18275878 3383 FALCON 9 DEB 1 47683U 21012BR 21066.22547000 .01322172 11872-4 53649-3 0 9990 2 47683 53.0453 3.5078 0013401 265.2395 94.7114 16.22478164 3385 CYGNUS NG-15 1 47689U 21013A 21065.59387550 .00001540 00000-0 36065-4 0 9991 2 47689 51.6452 130.1583 0003369 76.5848 71.3110 15.49045139272699 YAOGAN-31 G 1 47691U 21014A 21066.36855585 -.00000090 00000-0 00000+0 0 9994 2 47691 63.4061 108.5786 0007135 262.6859 97.3352 13.46543155 1511 2021-014B 1 47692U 21014B 21066.38615057 -.00000090 00000-0 00000+0 0 9995 2 47692 63.4111 108.6452 0006408 256.5892 103.4421 13.43777501 1517 YAOGAN-31 H 1 47693U 21014C 21066.49398875 -.00000088 00000-0 00000+0 0 9991 2 47693 63.4084 108.5664 0015597 257.2815 102.6462 13.38776584 1524 2021-014D 1 47694U 21014D 21066.45689562 -.00000090 00000-0 00000+0 0 9997 2 47694 63.4107 108.4417 0004613 272.8043 87.2453 13.44212709 1528 YAOGAN-31 J 1 47695U 21014E 21066.44039297 -.00000090 00000-0 00000+0 0 9991 2 47695 63.4087 108.3836 0008850 267.1152 92.8863 13.46470954 1522 CZ-4C R/B 1 47696U 21014F 21065.81866887 -.00000140 00000-0 -49629-4 0 9997 2 47696 63.4644 108.9809 0115039 31.3153 329.4654 13.68338485 1464 2021-014G 1 47697U 21014G 21066.48180324 -.00000089 00000-0 00000+0 0 9993 2 47697 63.4011 108.5115 0018593 230.4709 129.4651 13.41262563 1510 AMAZONIA 1 1 47699U 21015A 21065.90352087 -.00000044 00000-0 00000+0 0 9990 2 47699 98.5050 141.3013 0011854 232.1457 127.5235 14.42507904 977 2021-015B 1 47700U 21015B 21065.66352308 -.00000067 00000-0 00000-0 0 9998 2 47700 97.3826 140.6974 0043565 222.3946 137.4027 15.12534915 973 2021-015C 1 47701U 21015C 21066.08308742 -.00000071 00000-0 00000+0 0 9993 2 47701 97.4674 141.3605 0010932 290.5749 69.4674 15.22245796 1043 2021-015D 1 47702U 21015D 21066.08489624 -.00000071 00000-0 00000+0 0 9993 2 47702 97.4715 141.3612 0011263 279.0450 80.9871 15.21839209 1030 2021-015E 1 47703U 21015E 21065.89078133 .00004757 00000-0 21656-3 0 9999 2 47703 97.4612 141.1494 0009205 271.3521 88.6660 15.21144330 1002 2021-015F 1 47704U 21015F 21065.89079643 .00004903 00000-0 22314-3 0 9992 2 47704 97.4609 141.1493 0009189 271.1597 88.8585 15.21142042 982 2021-015G 1 47705U 21015G 21065.89082881 .00004968 00000-0 22608-3 0 9998 2 47705 97.4609 141.1491 0009181 270.9386 89.0798 15.21134716 1008 2021-015H 1 47706U 21015H 21065.89085241 .00005033 00000-0 22904-3 0 9995 2 47706 97.4609 141.1490 0009171 270.7675 89.2510 15.21129636 1005 2021-015J 1 47707U 21015J 21065.89087430 .00005009 00000-0 22800-3 0 9996 2 47707 97.4609 141.1489 0009158 270.6877 89.3309 15.21124227 1000 2021-015K 1 47708U 21015K 21065.89088973 .00004843 00000-0 22057-3 0 9999 2 47708 97.4609 141.1490 0009152 270.4212 89.5975 15.21121589 1007 2021-015L 1 47709U 21015L 21065.89089994 .00005179 00000-0 23563-3 0 9990 2 47709 97.4608 141.1489 0009125 270.2797 89.7393 15.21120529 920 2021-015M 1 47710U 21015M 21065.89091750 .00005401 00000-0 24564-3 0 9995 2 47710 97.4608 141.1487 0009134 270.4578 89.5611 15.21116957 1000 2021-015N 1 47711U 21015N 21064.90416950 .00004908 00000-0 22360-3 0 9993 2 47711 97.4607 140.1710 0009032 274.1617 85.8586 15.21107539 858 2021-015P 1 47712U 21015P 21064.90418057 .00004651 00000-0 21209-3 0 9990 2 47712 97.4608 140.1710 0009035 274.2299 85.7903 15.21102470 851 2021-015Q 1 47713U 21015Q 21064.90418063 .00005112 00000-0 23275-3 0 9996 2 47713 97.4606 140.1711 0009000 274.5253 85.4954 15.21103604 758 2021-015R 1 47714U 21015R 21064.90418331 .00004963 00000-0 22608-3 0 9997 2 47714 97.4607 140.1713 0009069 274.0295 85.9904 15.21103551 771 2021-015S 1 47715U 21015S 21064.90419122 .00004813 00000-0 21935-3 0 9993 2 47715 97.4607 140.1712 0009064 273.8828 86.1371 15.21100462 853 2021-015T 1 47716U 21015T 21066.35219049 -.00000070 00000-0 00000+0 0 9999 2 47716 97.4608 141.6061 0010644 261.5762 98.4458 15.20921616 960 2021-015U 1 47717U 21015U 21066.08918428 -.00000070 00000-0 00000+0 0 9997 2 47717 97.4662 141.3421 0010200 266.5801 93.4362 15.20883193 1030 2021-015V 1 47718U 21015V 21066.35252700 -.00000070 00000-0 00000+0 0 9992 2 47718 97.4630 141.6065 0009720 261.8956 98.1291 15.20849910 1073 ARKTIKA-M 1 1 47719U 21016A 21065.94973962 .00000234 00000-0 00000+0 0 9999 2 47719 63.3509 294.0558 7213382 270.1599 49.7666 2.00122498 127 FREGAT R/B 1 47720U 21016B 21065.87654897 .00002631 00000-0 19773+0 0 9996 2 47720 63.3363 293.9803 7274338 269.5292 14.8928 1.98976122 73 SDSAT 1 47721U 21015W 21066.09162399 -.00000069 00000-0 00000+0 0 9999 2 47721 97.4713 141.3511 0009852 247.8290 112.2293 15.20340658 1023